SENTINEL-3A

Last updated on Wed Jul 02 2025 00:02:30 GMT+0000 (Coordinated Universal Time)

1 41335U 16011A 25182.56713134 .00000089 00000+0 54658-4 0 9991 2 41335 98.6249 249.9514 0001464 96.7935 263.3412 14.26737985488063
UTC large
Height (km)
Speed (km/s)
/
Latitude / Longitude
Inclination (degrees)
Orbital Period (minutes)
Azimuth
Elevation
Range (km)
Doppler Factor

Next 0 passes for location: London (51.5072 / 0.1276)

Sorry there are no passes over London.